Weather History for Louisville, KY

Change the Weather History Date:

Saturday, February 9, 2013

  Actual Average Record
Temperature  
Mean Temperature 37 °F 37 °F  
Max Temperature 47 °F 46 °F 70 °F (1965)
Min Temperature 27 °F 29 °F -14 °F (1899)
Degree Days  
Heating Degree Days 28 28  
Month to date heating degree days 266 256  
Since 1 July heating degree days 2588 2765  
Cooling Degree Days 0 0  
Month to date cooling degree days 0 0  
Year to date cooling degree days 0 0  
Moisture  
Dew Point 24 °F    
Average Humidity 58    
Maximum Humidity 78    
Minimum Humidity 38    
Precipitation  
Precipitation 0.00 in 0.11 in 1.23 in (1885)
Month to date precipitation 0.30 1.03  
Year to date precipitation 5.40 4.27  
Snow  
Snow 0.00 in 0.10 in 6.50 in (2010)
Month to date snowfall 1.7 1.6  
Since 1 July snowfall 6.6 8.1  
Snow Depth 0.00 in    
Sea Level Pressure  
Sea Level Pressure 30.34 in    
Wind  
Wind Speed 5 mph (ENE)    
Max Wind Speed 12 mph    
Max Gust Speed 16 mph    
Visibility 10 miles    
Events      
T = Trace of Precipitation, MM = Missing Value Source: NWS Daily Summary

Daily Weather History Graph

Daily Weather History Graph

Search for Another Location

Airport:

Trip Planner

Search our weather history database for the weather conditions in past years. The results will help you decide how hot, cold, wet, or windy it might be!

Date:

Astronomy

Feb. 09, 2013 Rise Set
Actual Time 7:39 AM EST 6:15 PM EST
Civil Twilight 7:12 AM EST 6:42 PM EST
Nautical Twilight 6:41 AM EST 7:13 PM EST
Astronomical Twilight 6:10 AM EST 7:44 PM EST
Moon 6:51 AM EST (2/9) 5:56 PM EST (2/9)
Length of Visible Light 11h 30m
Length of Day
10h 35m
Waning Crescent, 0% of the Moon is Illuminated
Feb 9
Waning Crescent
Feb 10
New
Feb 17
First Quarter
Feb 25
Full
Mar 4
Last Quarter

Hourly Weather History & Observations

Time (EST) Temp. Windchill Dew Point Humidity Pressure Visibility Wind Dir Wind Speed Gust Speed Precip Events Conditions
12:47 AM 35.6 °F 30.7 °F 26.6 °F 70% 30.35 in 10.0 mi NNW 5.8 mph - N/A   Overcast
12:56 AM 34.0 °F 29.8 °F 27.0 °F 75% 30.37 in 10.0 mi NNW 4.6 mph - N/A   Overcast
1:56 AM 35.1 °F 31.0 °F 26.1 °F 70% 30.37 in 10.0 mi NNE 4.6 mph - N/A   Overcast
2:56 AM 34.0 °F 28.0 °F 26.1 °F 73% 30.38 in 10.0 mi NNE 6.9 mph - N/A   Overcast
3:56 AM 33.1 °F 26.1 °F 25.0 °F 72% 30.38 in 10.0 mi NE 8.1 mph - N/A   Overcast
4:17 AM 32.0 °F 24.8 °F 23.0 °F 69% 30.36 in 10.0 mi NNE 8.1 mph - N/A   Scattered Clouds
4:56 AM 32.0 °F 28.7 °F 23.0 °F 69% 30.38 in 10.0 mi NE 3.5 mph - N/A   Scattered Clouds
5:56 AM 30.0 °F 25.2 °F 23.0 °F 75% 30.38 in 10.0 mi ENE 4.6 mph - N/A   Scattered Clouds
6:56 AM 28.9 °F 25.2 °F 23.0 °F 78% 30.40 in 10.0 mi NNE 3.5 mph - N/A   Scattered Clouds
7:56 AM 28.0 °F 24.2 °F 21.9 °F 78% 30.42 in 9.0 mi NE 3.5 mph - N/A   Partly Cloudy
8:56 AM 30.9 °F 23.5 °F 24.1 °F 76% 30.42 in 9.0 mi East 8.1 mph - N/A   Partly Cloudy
9:56 AM 35.1 °F 27.9 °F 25.0 °F 67% 30.41 in 10.0 mi East 9.2 mph - N/A   Partly Cloudy
10:56 AM 36.0 °F 31.1 °F 24.1 °F 62% 30.41 in 10.0 mi East 5.8 mph - N/A   Scattered Clouds
11:56 AM 39.0 °F 35.7 °F 24.1 °F 55% 30.40 in 10.0 mi ESE 4.6 mph - N/A   Scattered Clouds
12:56 PM 41.0 °F - 24.1 °F 51% 30.38 in 10.0 mi Calm Calm - N/A   Scattered Clouds
1:56 PM 44.1 °F 40.1 °F 25.0 °F 47% 30.34 in 10.0 mi East 6.9 mph - N/A   Mostly Cloudy
2:56 PM 46.0 °F 43.1 °F 25.0 °F 44% 30.30 in 10.0 mi NE 5.8 mph - N/A   Mostly Cloudy
3:56 PM 46.9 °F - 24.1 °F 41% 30.30 in 10.0 mi Variable 3.5 mph - N/A   Mostly Cloudy
4:56 PM 46.9 °F - 23.0 °F 39% 30.28 in 10.0 mi East 6.9 mph - N/A   Mostly Cloudy
5:56 PM 44.1 °F 39.5 °F 24.1 °F 45% 30.26 in 10.0 mi East 8.1 mph - N/A   Mostly Cloudy
6:56 PM 42.1 °F 38.4 °F 24.1 °F 49% 30.25 in 10.0 mi East 5.8 mph - N/A   Clear
7:56 PM 39.9 °F 35.8 °F 23.0 °F 51% 30.25 in 10.0 mi East 5.8 mph - N/A   Scattered Clouds
8:56 PM 39.0 °F 35.7 °F 21.9 °F 50% 30.24 in 10.0 mi East 4.6 mph - N/A   Mostly Cloudy
9:56 PM 39.0 °F - 21.9 °F 50% 30.24 in 10.0 mi Calm Calm - N/A   Mostly Cloudy
10:56 PM 37.9 °F - 21.9 °F 53% 30.22 in 10.0 mi Calm Calm - N/A   Mostly Cloudy
11:56 PM 37.0 °F - 23.0 °F 57% 30.20 in 10.0 mi Calm Calm - N/A   Overcast